KB3KAV Weather Reports


time (UTC)temp
C
wind
direction
speed
KPH
gust
KPH
rain 1hr
cm
rain 24hr
cm
rain mn
cm
humidity
%
barometer
mb
20260504081454 0 85 0.0 0.0 0.00 0.00 0.00 93 1042.2
20260504080452 0 85 0.0 0.0 0.00 0.00 0.00 93 1042.2
20260504050421 1 85 0.0 0.0 0.00 0.00 0.00 87 1042.1
20260504045419 1 84 1.6 1.6 0.00 0.00 0.00 87 1042.0
20260504044419 2 85 0.0 1.6 0.00 0.00 0.00 87 1042.1
20260504043419 2 85 0.0 1.6 0.00 0.00 0.00 86 1042.1
20260504042419 2 85 0.0 0.0 0.00 0.00 0.00 86 1041.9
20260504041418 2 85 0.0 0.0 0.00 0.00 0.00 85 1042.0
20260504040412 2 85 0.0 0.0 0.00 0.00 0.00 84 1041.8
20260504035411 2 85 0.0 0.0 0.00 0.00 0.00 83 1042.0
20260504034411 2 85 1.6 1.6 0.00 0.00 0.00 83 1041.9
20260504033406 3 85 0.0 0.0 0.00 0.00 0.00 82 1041.8
20260504032405 3 85 1.6 1.6 0.00 0.00 0.00 81 1041.9
20260504031405 3 85 1.6 1.6 0.00 0.00 0.00 80 1041.9
20260504030404 3 85 0.0 0.0 0.00 0.00 0.00 79 1041.7
20260504025403 3 85 0.0 0.0 0.00 0.00 0.00 78 1041.4
20260504024402 4 85 1.6 1.6 0.00 0.00 0.00 77 1041.8
20260504023402 4 85 0.0 1.6 0.00 0.00 0.00 76 1041.6
20260504022400 4 86 0.0 0.0 0.00 0.00 0.00 76 1041.7
20260504021359 5 86 1.6 1.6 0.00 0.00 0.00 74 1041.7
20260504020359 5 86 0.0 1.6 0.00 0.00 0.00 73 1041.6
20260504015357 5 85 0.0 0.0 0.00 0.00 0.00 71 1041.5
20260504014355 5 85 0.0 0.0 0.00 0.00 0.00 69 1041.4
20260504013351 6 84 1.6 1.6 0.00 0.00 0.00 68 1041.4
20260504012351 6 85 1.6 1.6 0.00 0.00 0.00 67 1041.3
20260504011350 7 82 0.0 1.6 0.00 0.00 0.00 64 1040.9
20260504010348 7 85 1.6 1.6 0.00 0.00 0.00 62 1040.9
20260504005347 7 85 0.0 1.6 0.00 0.00 0.00 62 1040.8
20260504004343 8 85 1.6 1.6 0.00 0.00 0.00 59 1041.0
20260504003342 8 85 0.0 0.0 0.00 0.00 0.00 58 1041.0
20260504002340 9 94 1.6 1.6 0.00 0.00 0.00 56 1040.7
20260504001340 10 97 1.6 1.6 0.00 0.00 0.00 52 1040.6
20260504000340 11 99 1.6 1.6 0.00 0.00 0.00 47 1040.4
20260503235335 12 45 1.6 1.6 0.00 0.00 0.00 43 1040.2
20260503234330 12 61 1.6 1.6 0.00 0.00 0.00 39 1040.2
20260503233329 13 84 3.2 3.2 0.00 0.00 0.00 37 1040.3
20260503232329 13 298 6.4 8.0 0.00 0.00 0.00 36 1040.1
20260503231330 13 309 4.8 8.0 0.00 0.00 0.00 35 1040.1
20260503230328 13 82 4.8 8.0 0.00 0.00 0.00 37 1040.3
20260503225328 13 27 4.8 4.8 0.00 0.00 0.00 35 1040.0
20260503224327 13 41 1.6 1.6 0.00 0.00 0.00 36 1040.0
20260503223322 15 300 6.4 8.0 0.00 0.00 0.00 35 1039.9
20260503222323 15 313 11.3 11.3 0.00 0.00 0.00 33 1040.0
20260503221319 15 305 8.0 11.3 0.00 0.00 0.00 32 1039.9
20260503220317 15 280 4.8 4.8 0.00 0.00 0.00 34 1040.0
20260503215317 14 296 9.7 11.3 0.00 0.00 0.00 33 1040.0
20260503214312 14 281 9.7 11.3 0.00 0.00 0.00 34 1039.8
20260503213307 15 301 8.0 11.3 0.00 0.00 0.00 32 1039.9
20260503212301 15 244 4.8 4.8 0.00 0.00 0.00 33 1039.7
20260503211301 15 280 9.7 11.3 0.00 0.00 0.00 32 1039.9
20260503210259 15 293 11.3 16.1 0.00 0.00 0.00 33 1039.9
20260503205256 14 244 11.3 12.9 0.00 0.00 0.00 33 1039.7
20260503204257 15 227 4.8 8.0 0.00 0.00 0.00 31 1039.5
20260503203251 15 49 4.8 4.8 0.00 0.00 0.00 30 1039.7
20260503202246 14 282 6.4 8.0 0.00 0.00 0.00 31 1039.5
20260503201241 13 278 8.0 9.7 0.00 0.00 0.00 31 1039.7
20260503200239 13 269 16.1 17.7 0.00 0.00 0.00 30 1040.0
20260503195239 14 335 6.4 9.7 0.00 0.00 0.00 30 1040.0
20260503194238 13 287 17.7 22.5 0.00 0.00 0.00 29 1040.1
20260503193237 13 267 19.3 25.7 0.00 0.00 0.00 30 1040.3
20260503192234 13 295 8.0 9.7 0.00 0.00 0.00 33 1040.2
20260503191228 13 132 6.4 8.0 0.00 0.00 0.00 30 1040.5
20260503190227 13 100 1.6 3.2 0.00 0.00 0.00 30 1040.5
20260503185226 13 289 16.1 20.9 0.00 0.00 0.00 29 1040.7
20260503184223 13 295 11.3 14.5 0.00 0.00 0.00 31 1040.9
20260503183223 12 322 8.0 8.0 0.00 0.00 0.00 33 1041.1
20260503182219 13 219 8.0 9.7 0.00 0.00 0.00 31 1041.0
20260503181218 12 275 6.4 8.0 0.00 0.00 0.00 32 1041.0
20260503180213 13 273 20.9 24.1 0.00 0.00 0.00 32 1041.1
20260503175213 12 284 8.0 12.9 0.00 0.00 0.00 32 1041.4
20260503174213 12 295 20.9 22.5 0.00 0.00 0.00 33 1041.5
20260503173209 11 307 8.0 9.7 0.00 0.00 0.00 35 1041.9
20260503172209 12 111 3.2 3.2 0.00 0.00 0.00 34 1041.7
20260503171208 11 14 1.6 3.2 0.00 0.00 0.00 38 1041.9
20260503170208 11 247 11.3 12.9 0.00 0.00 0.00 35 1042.1
20260503160159 10 277 6.4 9.7 0.00 0.00 0.00 36 1042.6
20260503150142 8 89 3.2 4.8 0.00 0.00 0.00 41 1042.8
20260503140135 8 127 9.7 11.3 0.00 0.00 0.00 37 1043.1
20260503131128 7 300 9.7 12.9 0.00 0.00 0.00 52 1043.4
20260503130123 7 288 11.3 14.5 0.00 0.00 0.00 54 1043.4
20260503120112 4 271 4.8 4.8 0.00 0.00 0.00 68 1043.4